Time,TemperatureF,DewpointF,PressureIn,WindDirection,WindDirectionDegrees,WindSpeedMPH,WindSpeedGustMPH,Humidity,HourlyPrecipIn,Conditions,Clouds,dailyrainin,SoftwareType,DateUTC
2013-08-17 00:01:00,66.4,61.0,30.09,East,90,0.7,0.7,83,0.00,,,0.00,meteobridge,2013-08-17 04:01:00,
2013-08-17 00:02:00,66.4,61.0,30.09,East,90,0.7,0.7,83,0.00,,,0.00,meteobridge,2013-08-17 04:02:00,
2013-08-17 00:04:00,66.4,61.0,30.09,East,90,0.7,0.7,83,0.00,,,0.00,meteobridge,2013-08-17 04:04:00,
2013-08-17 00:09:00,66.4,61.0,30.09,East,90,2.2,2.2,83,0.00,,,0.00,meteobridge,2013-08-17 04:09:00,
2013-08-17 00:14:00,66.4,60.8,30.09,NE,45,3.8,3.8,82,0.00,,,0.00,meteobridge,2013-08-17 04:14:00,
2013-08-17 00:19:00,66.4,60.8,30.08,East,90,0.7,1.6,82,0.00,,,0.00,meteobridge,2013-08-17 04:19:00,
2013-08-17 00:24:00,66.2,60.6,30.08,East,90,0.7,3.8,82,0.00,,,0.00,meteobridge,2013-08-17 04:24:00,
2013-08-17 00:30:00,66.0,60.6,30.08,NW,315,5.4,5.4,83,0.00,,,0.00,meteobridge,2013-08-17 04:30:00,
2013-08-17 00:35:00,65.8,60.6,30.08,NE,45,2.2,2.2,83,0.00,,,0.00,meteobridge,2013-08-17 04:35:00,
2013-08-17 00:40:00,65.8,60.8,30.08,SE,135,0.7,2.2,84,0.00,,,0.00,meteobridge,2013-08-17 04:40:00,
2013-08-17 00:45:00,65.7,61.0,30.08,SE,135,2.2,2.2,85,0.00,,,0.00,meteobridge,2013-08-17 04:45:00,
2013-08-17 00:50:00,65.8,61.2,30.08,SE,135,2.2,2.2,85,0.00,,,0.00,meteobridge,2013-08-17 04:50:00,
2013-08-17 00:55:00,65.8,61.2,30.08,East,90,0.0,1.6,85,0.00,,,0.00,meteobridge,2013-08-17 04:55:00,
2013-08-17 01:00:00,65.7,61.0,30.09,North,0,0.7,0.7,85,0.00,,,0.00,meteobridge,2013-08-17 05:00:00,
2013-08-17 01:06:00,65.7,61.0,30.09,East,90,0.0,1.6,85,0.00,,,0.00,meteobridge,2013-08-17 05:06:00,
2013-08-17 01:11:00,65.7,61.0,30.09,South,180,0.0,1.6,85,0.00,,,0.00,meteobridge,2013-08-17 05:11:00,
2013-08-17 01:16:00,65.5,60.8,30.08,South,180,0.0,0.0,85,0.00,,,0.00,meteobridge,2013-08-17 05:16:00,
2013-08-17 01:21:00,65.5,61.2,30.08,South,180,0.0,2.2,86,0.00,,,0.00,meteobridge,2013-08-17 05:21:00,
2013-08-17 01:26:00,65.5,60.8,30.08,NE,45,3.8,3.8,85,0.00,,,0.00,meteobridge,2013-08-17 05:26:00,
2013-08-17 01:31:00,65.5,60.8,30.08,NE,45,2.2,2.2,85,0.00,,,0.00,meteobridge,2013-08-17 05:31:00,
2013-08-17 01:36:00,65.5,60.8,30.09,North,0,0.0,1.6,85,0.00,,,0.00,meteobridge,2013-08-17 05:36:00,
2013-08-17 01:42:00,65.5,60.8,30.09,East,90,2.2,2.2,85,0.00,,,0.00,meteobridge,2013-08-17 05:42:00,
2013-08-17 01:47:00,65.5,60.8,30.08,East,90,1.6,1.6,85,0.00,,,0.00,meteobridge,2013-08-17 05:47:00,
2013-08-17 01:52:00,65.5,60.8,30.08,South,180,1.6,1.6,85,0.00,,,0.00,meteobridge,2013-08-17 05:52:00,
2013-08-17 01:57:00,65.5,60.8,30.08,North,0,1.6,1.6,85,0.00,,,0.00,meteobridge,2013-08-17 05:57:00,
2013-08-17 02:02:00,65.5,60.8,30.08,North,0,3.1,3.1,85,0.00,,,0.00,meteobridge,2013-08-17 06:02:00,
2013-08-17 02:08:00,65.5,60.8,30.08,North,0,3.1,3.1,85,0.00,,,0.00,meteobridge,2013-08-17 06:08:00,
2013-08-17 02:13:00,65.3,60.6,30.08,South,180,1.6,2.2,85,0.00,,,0.00,meteobridge,2013-08-17 06:13:00,
2013-08-17 02:18:00,65.3,60.6,30.08,East,90,0.7,1.6,85,0.00,,,0.00,meteobridge,2013-08-17 06:18:00,
2013-08-17 02:23:00,65.3,60.6,30.08,South,180,0.7,1.6,85,0.00,,,0.00,meteobridge,2013-08-17 06:23:00,
2013-08-17 02:28:00,65.5,60.8,30.08,North,0,3.1,3.1,85,0.00,,,0.00,meteobridge,2013-08-17 06:28:00,
2013-08-17 02:33:00,65.3,60.6,30.08,SE,135,3.1,3.1,85,0.00,,,0.00,meteobridge,2013-08-17 06:33:00,
2013-08-17 02:39:00,65.5,60.8,30.07,North,0,0.0,2.2,85,0.00,,,0.00,meteobridge,2013-08-17 06:39:00,
2013-08-17 02:44:00,65.5,60.8,30.08,East,90,2.2,3.8,85,0.00,,,0.00,meteobridge,2013-08-17 06:44:00,
2013-08-17 02:49:00,65.5,60.8,30.08,NE,45,0.0,3.1,85,0.00,,,0.00,meteobridge,2013-08-17 06:49:00,
2013-08-17 02:54:00,65.1,60.4,30.08,NE,45,2.2,2.2,85,0.00,,,0.00,meteobridge,2013-08-17 06:54:00,
2013-08-17 02:59:00,65.3,60.6,30.08,East,90,2.2,2.2,85,0.00,,,0.00,meteobridge,2013-08-17 06:59:00,
2013-08-17 03:04:00,65.1,60.4,30.08,South,180,4.5,6.0,85,0.00,,,0.00,meteobridge,2013-08-17 07:04:00,
2013-08-17 03:10:00,65.1,60.4,30.08,East,90,3.1,3.1,85,0.00,,,0.00,meteobridge,2013-08-17 07:10:00,
2013-08-17 03:15:00,65.3,60.3,30.08,East,90,7.6,7.6,84,0.00,,,0.00,meteobridge,2013-08-17 07:15:00,
2013-08-17 03:20:00,65.3,60.1,30.08,East,90,4.5,8.3,83,0.00,,,0.00,meteobridge,2013-08-17 07:20:00,
2013-08-17 03:25:00,64.9,59.7,30.08,NE,45,9.2,9.2,83,0.00,,,0.00,meteobridge,2013-08-17 07:25:00,
2013-08-17 03:30:00,64.9,59.7,30.08,North,0,0.0,0.0,83,0.00,,,0.00,meteobridge,2013-08-17 07:30:00,
2013-08-17 03:35:00,64.4,59.5,30.08,NW,315,4.5,4.5,84,0.00,,,0.00,meteobridge,2013-08-17 07:35:00,
2013-08-17 03:41:00,64.2,59.4,30.07,South,180,5.4,5.4,84,0.00,,,0.00,meteobridge,2013-08-17 07:41:00,
2013-08-17 03:46:00,63.9,59.2,30.07,North,0,1.6,3.8,85,0.00,,,0.00,meteobridge,2013-08-17 07:46:00,
2013-08-17 03:51:00,64.0,59.4,30.08,NE,45,3.8,3.8,85,0.00,,,0.00,meteobridge,2013-08-17 07:51:00,
2013-08-17 03:56:00,64.2,59.5,30.08,South,180,2.2,3.8,85,0.00,,,0.00,meteobridge,2013-08-17 07:56:00,
2013-08-17 04:01:00,64.2,59.5,30.08,NE,45,1.6,1.6,85,0.00,,,0.00,meteobridge,2013-08-17 08:01:00,
2013-08-17 04:06:00,64.2,59.5,30.08,NE,45,1.6,1.6,85,0.00,,,0.00,meteobridge,2013-08-17 08:06:00,
2013-08-17 04:12:00,64.2,59.4,30.08,SW,225,0.0,0.7,84,0.00,,,0.00,meteobridge,2013-08-17 08:12:00,
2013-08-17 04:17:00,64.2,59.4,30.07,East,90,2.2,2.2,84,0.00,,,0.00,meteobridge,2013-08-17 08:17:00,
2013-08-17 04:22:00,64.2,59.4,30.07,North,0,1.6,2.2,84,0.00,,,0.00,meteobridge,2013-08-17 08:22:00,
2013-08-17 04:27:00,64.2,59.4,30.07,North,0,1.6,3.1,84,0.00,,,0.00,meteobridge,2013-08-17 08:27:00,
2013-08-17 04:32:00,64.0,59.2,30.07,NE,45,3.8,3.8,84,0.00,,,0.00,meteobridge,2013-08-17 08:32:00,
2013-08-17 04:37:00,64.2,59.0,30.07,SE,135,3.1,7.6,83,0.00,,,0.00,meteobridge,2013-08-17 08:37:00,
2013-08-17 04:43:00,64.2,59.0,30.07,East,90,1.6,2.2,83,0.00,,,0.00,meteobridge,2013-08-17 08:43:00,
2013-08-17 04:48:00,64.0,58.8,30.07,NE,45,1.6,1.6,83,0.00,,,0.00,meteobridge,2013-08-17 08:48:00,
2013-08-17 04:53:00,64.2,59.0,30.07,North,0,0.7,0.7,83,0.00,,,0.00,meteobridge,2013-08-17 08:53:00,
2013-08-17 04:58:00,64.0,59.2,30.06,North,0,0.0,1.6,84,0.00,,,0.00,meteobridge,2013-08-17 08:58:00,
2013-08-17 05:03:00,64.0,59.2,30.06,North,0,0.0,1.6,84,0.00,,,0.00,meteobridge,2013-08-17 09:03:00,
2013-08-17 05:08:00,64.0,59.2,30.06,North,0,0.7,0.7,84,0.00,,,0.00,meteobridge,2013-08-17 09:08:00,
2013-08-17 05:14:00,64.0,59.2,30.06,South,180,0.0,1.6,84,0.00,,,0.00,meteobridge,2013-08-17 09:14:00,
2013-08-17 05:19:00,63.9,59.0,30.06,East,90,0.7,0.7,84,0.00,,,0.00,meteobridge,2013-08-17 09:19:00,
2013-08-17 05:24:00,63.9,59.0,30.06,North,0,3.1,3.8,84,0.00,,,0.00,meteobridge,2013-08-17 09:24:00,
2013-08-17 05:29:00,64.0,58.8,30.06,North,0,2.2,2.2,83,0.00,,,0.00,meteobridge,2013-08-17 09:29:00,
2013-08-17 05:34:00,64.0,58.8,30.06,North,0,0.7,0.7,83,0.00,,,0.00,meteobridge,2013-08-17 09:34:00,
2013-08-17 05:40:00,64.0,58.8,30.06,North,0,2.2,2.2,83,0.00,,,0.00,meteobridge,2013-08-17 09:40:00,
2013-08-17 05:45:00,64.0,58.8,30.06,West,270,2.2,2.2,83,0.00,,,0.00,meteobridge,2013-08-17 09:45:00,
2013-08-17 05:50:00,64.0,58.8,30.06,East,90,2.2,2.2,83,0.00,,,0.00,meteobridge,2013-08-17 09:50:00,
2013-08-17 05:55:00,63.9,58.6,30.06,North,0,1.6,1.6,83,0.00,,,0.00,meteobridge,2013-08-17 09:55:00,
2013-08-17 06:00:00,63.9,58.6,30.07,North,0,1.6,1.6,83,0.00,,,0.00,meteobridge,2013-08-17 10:00:00,
2013-08-17 06:05:00,63.9,58.6,30.07,North,0,1.6,1.6,83,0.00,,,0.00,meteobridge,2013-08-17 10:05:00,
2013-08-17 06:10:00,63.9,58.6,30.07,NE,45,3.1,3.1,83,0.00,,,0.00,meteobridge,2013-08-17 10:10:00,
2013-08-17 06:15:00,63.7,58.5,30.07,South,180,2.2,3.8,83,0.00,,,0.00,meteobridge,2013-08-17 10:15:00,
2013-08-17 06:20:00,63.9,58.6,30.07,North,0,2.2,2.2,83,0.00,,,0.00,meteobridge,2013-08-17 10:20:00,
2013-08-17 06:26:00,63.7,58.5,30.07,East,90,1.6,1.6,83,0.00,,,0.00,meteobridge,2013-08-17 10:26:00,
2013-08-17 06:31:00,63.7,58.5,30.07,East,90,0.7,0.7,83,0.00,,,0.00,meteobridge,2013-08-17 10:31:00,
2013-08-17 06:36:00,63.7,58.5,30.07,North,0,1.6,1.6,83,0.00,,,0.00,meteobridge,2013-08-17 10:36:00,
2013-08-17 06:41:00,63.7,58.5,30.07,West,270,1.6,1.6,83,0.00,,,0.00,meteobridge,2013-08-17 10:41:00,
2013-08-17 06:46:00,63.7,58.8,30.07,South,180,1.6,3.1,84,0.00,,,0.00,meteobridge,2013-08-17 10:46:00,
2013-08-17 06:51:00,63.9,58.6,30.07,East,90,0.0,0.0,83,0.00,,,0.00,meteobridge,2013-08-17 10:51:00,
2013-08-17 06:57:00,63.9,58.6,30.08,South,180,0.0,1.6,83,0.00,,,0.00,meteobridge,2013-08-17 10:57:00,
2013-08-17 07:02:00,64.0,58.8,30.08,East,90,4.5,7.6,83,0.00,,,0.00,meteobridge,2013-08-17 11:02:00,
2013-08-17 07:07:00,63.9,58.6,30.07,East,90,1.6,3.8,83,0.00,,,0.00,meteobridge,2013-08-17 11:07:00,
2013-08-17 07:12:00,63.9,58.6,30.08,South,180,1.6,5.4,83,0.00,,,0.00,meteobridge,2013-08-17 11:12:00,
2013-08-17 07:17:00,63.9,58.6,30.08,NE,45,3.1,3.1,83,0.00,,,0.00,meteobridge,2013-08-17 11:17:00,
2013-08-17 07:22:00,63.9,58.6,30.09,East,90,2.2,3.1,83,0.00,,,0.00,meteobridge,2013-08-17 11:22:00,
2013-08-17 07:28:00,63.9,58.6,30.09,North,0,4.5,5.4,83,0.00,,,0.00,meteobridge,2013-08-17 11:28:00,
2013-08-17 07:33:00,64.0,58.8,30.09,NE,45,3.8,3.8,83,0.00,,,0.00,meteobridge,2013-08-17 11:33:00,
2013-08-17 07:38:00,63.9,58.6,30.09,East,90,1.6,2.2,83,0.00,,,0.00,meteobridge,2013-08-17 11:38:00,
2013-08-17 07:43:00,63.9,58.6,30.09,West,270,0.7,2.2,83,0.00,,,0.00,meteobridge,2013-08-17 11:43:00,
2013-08-17 07:48:00,63.9,59.0,30.09,NE,45,2.2,2.2,84,0.00,,,0.00,meteobridge,2013-08-17 11:48:00,
2013-08-17 07:53:00,64.0,58.8,30.09,East,90,0.0,0.0,83,0.00,,,0.00,meteobridge,2013-08-17 11:53:00,
2013-08-17 07:59:00,64.0,58.8,30.09,East,90,1.6,1.6,83,0.00,,,0.00,meteobridge,2013-08-17 11:59:00,
2013-08-17 08:04:00,64.0,58.8,30.09,North,0,0.7,0.7,83,0.00,,,0.00,meteobridge,2013-08-17 12:04:00,
2013-08-17 08:08:00,64.0,58.8,30.09,NE,45,3.1,3.1,83,0.00,,,0.00,meteobridge,2013-08-17 12:08:00,
2013-08-17 08:14:00,64.2,59.0,30.09,North,0,4.5,4.5,83,0.00,,,0.00,meteobridge,2013-08-17 12:14:00,
2013-08-17 08:19:00,64.6,59.7,30.08,East,90,2.2,2.2,84,0.00,,,0.00,meteobridge,2013-08-17 12:19:00,
2013-08-17 08:24:00,64.8,59.9,30.09,East,90,1.6,3.8,84,0.00,,,0.00,meteobridge,2013-08-17 12:24:00,
2013-08-17 08:29:00,64.8,59.5,30.09,South,180,2.2,2.2,83,0.00,,,0.00,meteobridge,2013-08-17 12:29:00,
2013-08-17 08:34:00,65.3,59.7,30.09,East,90,3.1,8.3,82,0.00,,,0.00,meteobridge,2013-08-17 12:34:00,
2013-08-17 08:39:00,66.2,60.3,30.09,North,0,3.8,3.8,81,0.00,,,0.00,meteobridge,2013-08-17 12:39:00,
2013-08-17 08:45:00,66.0,59.7,30.09,North,0,2.2,3.8,80,0.00,,,0.00,meteobridge,2013-08-17 12:45:00,
2013-08-17 08:50:00,65.8,59.5,30.09,SE,135,2.2,3.8,80,0.00,,,0.00,meteobridge,2013-08-17 12:50:00,
2013-08-17 08:55:00,65.7,59.4,30.09,North,0,5.4,5.4,80,0.00,,,0.00,meteobridge,2013-08-17 12:55:00,
2013-08-17 09:00:00,66.0,59.7,30.10,NE,45,3.1,3.1,80,0.00,,,0.00,meteobridge,2013-08-17 13:00:00,
2013-08-17 09:05:00,65.8,59.5,30.11,South,180,6.0,6.0,80,0.00,,,0.00,meteobridge,2013-08-17 13:05:00,
2013-08-17 09:10:00,65.8,59.2,30.11,NE,45,8.3,8.3,79,0.00,,,0.00,meteobridge,2013-08-17 13:10:00,
2013-08-17 09:16:00,65.7,59.0,30.11,NE,45,6.9,6.9,79,0.00,,,0.00,meteobridge,2013-08-17 13:16:00,
2013-08-17 09:21:00,65.5,58.8,30.11,North,0,6.0,6.0,79,0.00,,,0.00,meteobridge,2013-08-17 13:21:00,
2013-08-17 09:26:00,65.5,58.8,30.11,North,0,3.8,3.8,79,0.00,,,0.00,meteobridge,2013-08-17 13:26:00,
2013-08-17 09:31:00,65.5,59.2,30.10,East,90,2.2,3.8,80,0.00,,,0.00,meteobridge,2013-08-17 13:31:00,
2013-08-17 09:36:00,65.5,59.2,30.10,North,0,6.0,6.0,80,0.00,,,0.00,meteobridge,2013-08-17 13:36:00,
2013-08-17 09:41:00,65.5,58.8,30.10,North,0,1.6,6.0,79,0.00,,,0.00,meteobridge,2013-08-17 13:41:00,
2013-08-17 09:47:00,65.8,59.5,30.11,SW,225,3.8,3.8,80,0.00,,,0.00,meteobridge,2013-08-17 13:47:00,
2013-08-17 09:52:00,65.7,59.0,30.11,East,90,5.4,5.4,79,0.00,,,0.00,meteobridge,2013-08-17 13:52:00,
2013-08-17 09:57:00,65.7,59.0,30.11,SE,135,3.1,3.8,79,0.00,,,0.00,meteobridge,2013-08-17 13:57:00,
2013-08-17 10:02:00,65.7,59.0,30.11,SE,135,3.1,3.1,79,0.00,,,0.00,meteobridge,2013-08-17 14:02:00,
2013-08-17 10:07:00,65.7,59.0,30.11,SE,135,3.1,3.1,79,0.00,,,0.00,meteobridge,2013-08-17 14:07:00,
2013-08-17 10:12:00,65.7,58.6,30.12,East,90,5.4,5.4,78,0.00,,,0.00,meteobridge,2013-08-17 14:12:00,
2013-08-17 10:18:00,65.7,59.0,30.11,SE,135,4.5,4.5,79,0.00,,,0.00,meteobridge,2013-08-17 14:18:00,
2013-08-17 10:23:00,65.8,58.8,30.11,North,0,1.6,4.5,78,0.00,,,0.00,meteobridge,2013-08-17 14:23:00,
2013-08-17 10:28:00,66.4,59.4,30.11,SE,135,1.6,1.6,78,0.00,,,0.00,meteobridge,2013-08-17 14:28:00,
2013-08-17 10:33:00,66.4,58.6,30.11,NE,45,3.8,3.8,76,0.00,,,0.00,meteobridge,2013-08-17 14:33:00,
2013-08-17 10:38:00,66.4,59.0,30.12,West,270,3.1,3.1,77,0.00,,,0.00,meteobridge,2013-08-17 14:38:00,
2013-08-17 10:43:00,66.7,59.4,30.12,SE,135,1.6,1.6,77,0.00,,,0.00,meteobridge,2013-08-17 14:43:00,
2013-08-17 10:49:00,66.2,58.8,30.12,East,90,2.2,2.2,77,0.00,,,0.00,meteobridge,2013-08-17 14:49:00,
2013-08-17 10:54:00,66.0,59.0,30.12,NE,45,1.6,3.8,78,0.00,,,0.00,meteobridge,2013-08-17 14:54:00,
2013-08-17 10:59:00,65.8,59.2,30.12,East,90,3.8,3.8,79,0.00,,,0.00,meteobridge,2013-08-17 14:59:00,
2013-08-17 11:04:00,65.7,59.0,30.12,NE,45,3.1,3.1,79,0.00,,,0.00,meteobridge,2013-08-17 15:04:00,
2013-08-17 11:09:00,65.7,59.0,30.13,North,0,0.7,2.2,79,0.00,,,0.00,meteobridge,2013-08-17 15:09:00,
2013-08-17 11:15:00,65.7,59.0,30.13,North,0,2.2,2.2,79,0.00,,,0.00,meteobridge,2013-08-17 15:15:00,
2013-08-17 11:20:00,65.5,59.5,30.13,East,90,2.2,2.2,81,0.00,,,0.00,meteobridge,2013-08-17 15:20:00,
2013-08-17 11:25:00,65.5,59.2,30.13,East,90,0.0,0.0,80,0.00,,,0.00,meteobridge,2013-08-17 15:25:00,
2013-08-17 11:30:00,65.5,59.5,30.13,NE,45,0.7,2.2,81,0.00,,,0.00,meteobridge,2013-08-17 15:30:00,
2013-08-17 11:35:00,65.5,59.5,30.13,NE,45,4.5,4.5,81,0.00,,,0.00,meteobridge,2013-08-17 15:35:00,
2013-08-17 11:40:00,65.5,59.5,30.12,North,0,1.6,1.6,81,0.00,,,0.00,meteobridge,2013-08-17 15:40:00,
2013-08-17 11:45:00,65.8,59.5,30.12,North,0,0.0,1.6,80,0.00,,,0.00,meteobridge,2013-08-17 15:45:00,
2013-08-17 11:51:00,65.8,59.5,30.12,North,0,1.6,2.2,80,0.00,,,0.00,meteobridge,2013-08-17 15:51:00,
2013-08-17 11:56:00,65.8,59.5,30.12,North,0,1.6,3.8,80,0.00,,,0.00,meteobridge,2013-08-17 15:56:00,
2013-08-17 12:01:00,65.8,59.5,30.12,West,270,0.7,0.7,80,0.00,,,0.00,meteobridge,2013-08-17 16:01:00,
2013-08-17 12:06:00,65.8,59.5,30.12,West,270,0.7,0.7,80,0.00,,,0.00,meteobridge,2013-08-17 16:06:00,
2013-08-17 12:11:00,65.5,59.2,30.12,East,90,4.5,6.0,80,0.00,,,0.00,meteobridge,2013-08-17 16:11:00,
2013-08-17 12:17:00,65.3,59.0,30.12,North,0,1.6,3.1,80,0.00,,,0.00,meteobridge,2013-08-17 16:17:00,
2013-08-17 12:22:00,65.5,59.2,30.12,SE,135,5.4,5.4,80,0.00,,,0.00,meteobridge,2013-08-17 16:22:00,
2013-08-17 12:27:00,65.5,58.8,30.11,NE,45,5.4,5.4,79,0.00,,,0.00,meteobridge,2013-08-17 16:27:00,
2013-08-17 12:32:00,65.7,59.0,30.11,SE,135,2.2,5.4,79,0.00,,,0.00,meteobridge,2013-08-17 16:32:00,
2013-08-17 12:37:00,65.5,59.5,30.11,East,90,2.2,2.2,81,0.00,,,0.00,meteobridge,2013-08-17 16:37:00,
2013-08-17 12:42:00,65.3,59.7,30.10,SE,135,1.6,3.8,82,0.01,,,0.01,meteobridge,2013-08-17 16:42:00,
2013-08-17 12:48:00,65.3,60.1,30.11,East,90,2.2,3.1,83,0.01,,,0.01,meteobridge,2013-08-17 16:48:00,
2013-08-17 12:53:00,65.3,60.1,30.11,SE,135,4.5,4.5,83,0.01,,,0.01,meteobridge,2013-08-17 16:53:00,
2013-08-17 12:58:00,65.3,59.7,30.11,SE,135,4.5,4.5,82,0.01,,,0.01,meteobridge,2013-08-17 16:58:00,
2013-08-17 13:03:00,65.3,59.7,30.11,North,0,0.7,6.9,82,0.01,,,0.01,meteobridge,2013-08-17 17:03:00,
2013-08-17 13:08:00,65.3,60.1,30.11,North,0,3.1,3.1,83,0.01,,,0.01,meteobridge,2013-08-17 17:08:00,
2013-08-17 13:13:00,65.3,60.1,30.11,East,90,0.0,3.1,83,0.01,,,0.01,meteobridge,2013-08-17 17:13:00,
2013-08-17 13:19:00,65.1,59.9,30.10,West,270,3.8,3.8,83,0.01,,,0.01,meteobridge,2013-08-17 17:19:00,
2013-08-17 13:24:00,65.3,60.1,30.10,North,0,1.6,2.2,83,0.01,,,0.01,meteobridge,2013-08-17 17:24:00,
2013-08-17 13:29:00,65.1,59.9,30.09,East,90,0.7,1.6,83,0.01,,,0.01,meteobridge,2013-08-17 17:29:00,
2013-08-17 13:34:00,65.3,60.1,30.09,East,90,2.2,3.8,83,0.01,,,0.01,meteobridge,2013-08-17 17:34:00,
2013-08-17 13:39:00,65.5,59.9,30.09,NE,45,3.1,3.1,82,0.00,,,0.01,meteobridge,2013-08-17 17:39:00,
2013-08-17 13:44:00,65.7,60.1,30.09,West,270,4.5,4.5,82,0.00,,,0.01,meteobridge,2013-08-17 17:44:00,
2013-08-17 13:50:00,65.7,60.1,30.09,East,90,2.2,2.2,82,0.00,,,0.01,meteobridge,2013-08-17 17:50:00,
2013-08-17 13:55:00,65.7,60.1,30.09,North,0,4.5,4.5,82,0.00,,,0.01,meteobridge,2013-08-17 17:55:00,
2013-08-17 14:00:00,65.8,60.3,30.09,South,180,0.0,0.0,82,0.00,,,0.01,meteobridge,2013-08-17 18:00:00,
2013-08-17 14:05:00,65.8,60.3,30.09,South,180,0.0,0.0,82,0.00,,,0.01,meteobridge,2013-08-17 18:05:00,
2013-08-17 14:10:00,64.8,59.9,30.09,South,180,0.7,0.7,84,0.01,,,0.02,meteobridge,2013-08-17 18:10:00,
2013-08-17 14:15:00,64.6,59.9,30.09,North,0,0.0,2.2,85,0.02,,,0.04,meteobridge,2013-08-17 18:15:00,
2013-08-17 14:20:00,64.2,59.5,30.09,South,180,0.7,0.7,85,0.02,,,0.04,meteobridge,2013-08-17 18:20:00,
2013-08-17 14:26:00,64.2,59.9,30.09,South,180,0.0,0.0,86,0.02,,,0.04,meteobridge,2013-08-17 18:26:00,
2013-08-17 14:31:00,64.2,60.3,30.08,East,90,3.1,3.1,87,0.02,,,0.04,meteobridge,2013-08-17 18:31:00,
2013-08-17 14:36:00,64.4,60.8,30.09,West,270,0.0,0.0,88,0.02,,,0.04,meteobridge,2013-08-17 18:36:00,
2013-08-17 14:41:00,64.0,60.4,30.09,South,180,1.6,2.2,88,0.02,,,0.04,meteobridge,2013-08-17 18:41:00,
2013-08-17 14:46:00,64.0,60.8,30.09,South,180,0.0,0.0,89,0.02,,,0.04,meteobridge,2013-08-17 18:46:00,
2013-08-17 14:51:00,63.9,60.8,30.09,West,270,0.0,0.0,90,0.02,,,0.04,meteobridge,2013-08-17 18:51:00,
2013-08-17 14:56:00,64.0,61.3,30.09,West,270,0.0,0.0,91,0.02,,,0.04,meteobridge,2013-08-17 18:56:00,
2013-08-17 15:01:00,64.4,61.7,30.08,West,270,0.0,0.0,91,0.04,,,0.05,meteobridge,2013-08-17 19:01:00,
2013-08-17 15:07:00,64.6,61.9,30.09,North,0,0.0,0.0,91,0.04,,,0.05,meteobridge,2013-08-17 19:07:00,
2013-08-17 15:12:00,64.2,61.5,30.08,East,90,0.7,0.7,91,0.04,,,0.06,meteobridge,2013-08-17 19:12:00,
2013-08-17 15:17:00,64.6,61.9,30.08,NE,45,6.0,6.0,91,0.02,,,0.06,meteobridge,2013-08-17 19:17:00,
2013-08-17 15:22:00,64.6,61.5,30.08,North,0,0.0,0.0,90,0.02,,,0.06,meteobridge,2013-08-17 19:22:00,
2013-08-17 15:27:00,64.8,61.7,30.08,East,90,0.0,1.6,90,0.02,,,0.06,meteobridge,2013-08-17 19:27:00,
2013-08-17 15:32:00,64.9,61.9,30.08,South,180,0.7,1.6,90,0.02,,,0.06,meteobridge,2013-08-17 19:32:00,
2013-08-17 15:38:00,64.8,61.7,30.08,North,0,2.2,2.2,90,0.02,,,0.06,meteobridge,2013-08-17 19:38:00,
2013-08-17 15:43:00,64.9,61.9,30.08,North,0,0.7,3.8,90,0.02,,,0.06,meteobridge,2013-08-17 19:43:00,
2013-08-17 15:48:00,64.8,61.7,30.08,NE,45,1.6,4.5,90,0.02,,,0.06,meteobridge,2013-08-17 19:48:00,
2013-08-17 15:53:00,65.1,62.1,30.07,South,180,0.0,0.0,90,0.02,,,0.06,meteobridge,2013-08-17 19:53:00,
2013-08-17 15:58:00,64.9,61.9,30.08,North,0,0.0,2.2,90,0.02,,,0.06,meteobridge,2013-08-17 19:58:00,
2013-08-17 16:03:00,64.9,61.9,30.08,North,0,0.7,0.7,90,0.01,,,0.06,meteobridge,2013-08-17 20:03:00,
2013-08-17 16:09:00,64.8,61.7,30.07,North,0,3.1,3.1,90,0.01,,,0.06,meteobridge,2013-08-17 20:09:00,
2013-08-17 16:14:00,65.1,62.4,30.07,South,180,0.0,0.0,91,0.00,,,0.06,meteobridge,2013-08-17 20:14:00,
2013-08-17 16:19:00,64.8,61.7,30.07,North,0,1.6,1.6,90,0.00,,,0.06,meteobridge,2013-08-17 20:19:00,
2013-08-17 16:24:00,64.9,62.2,30.07,North,0,3.1,3.1,91,0.00,,,0.06,meteobridge,2013-08-17 20:24:00,
2013-08-17 16:29:00,65.1,62.4,30.07,SE,135,2.2,4.5,91,0.00,,,0.06,meteobridge,2013-08-17 20:29:00,
2013-08-17 16:34:00,64.9,62.2,30.07,NE,45,2.2,3.8,91,0.01,,,0.07,meteobridge,2013-08-17 20:34:00,
2013-08-17 16:40:00,64.9,62.2,30.07,East,90,2.2,2.2,91,0.01,,,0.07,meteobridge,2013-08-17 20:40:00,
2013-08-17 16:50:00,64.9,62.2,30.07,North,0,2.2,5.4,91,0.01,,,0.07,meteobridge,2013-08-17 20:50:00,
2013-08-17 16:55:00,65.1,62.4,30.07,SE,135,0.0,0.0,91,0.01,,,0.07,meteobridge,2013-08-17 20:55:00,
2013-08-17 17:01:00,64.9,62.2,30.08,East,90,6.0,6.0,91,0.01,,,0.07,meteobridge,2013-08-17 21:01:00,
2013-08-17 17:06:00,64.9,62.2,30.08,West,270,6.0,6.0,91,0.01,,,0.07,meteobridge,2013-08-17 21:06:00,
2013-08-17 17:11:00,65.1,62.4,30.08,North,0,4.5,4.5,91,0.01,,,0.07,meteobridge,2013-08-17 21:11:00,
2013-08-17 17:16:00,65.1,62.1,30.08,North,0,1.6,1.6,90,0.01,,,0.07,meteobridge,2013-08-17 21:16:00,
2013-08-17 17:21:00,64.9,61.9,30.08,NW,315,2.2,5.4,90,0.01,,,0.07,meteobridge,2013-08-17 21:21:00,
2013-08-17 17:27:00,64.9,62.2,30.08,NE,45,3.1,3.1,91,0.02,,,0.08,meteobridge,2013-08-17 21:27:00,
2013-08-17 17:32:00,65.3,62.6,30.08,North,0,3.1,3.1,91,0.04,,,0.09,meteobridge,2013-08-17 21:32:00,
2013-08-17 17:37:00,64.9,62.2,30.07,East,90,2.2,2.2,91,0.02,,,0.09,meteobridge,2013-08-17 21:37:00,
2013-08-17 17:42:00,64.9,62.2,30.07,NE,45,3.8,3.8,91,0.02,,,0.09,meteobridge,2013-08-17 21:42:00,
2013-08-17 17:47:00,64.9,62.2,30.07,East,90,0.7,3.1,91,0.02,,,0.09,meteobridge,2013-08-17 21:47:00,
2013-08-17 17:52:00,64.9,62.2,30.07,West,270,1.6,5.4,91,0.04,,,0.11,meteobridge,2013-08-17 21:52:00,
2013-08-17 17:57:00,64.9,62.2,30.08,North,0,0.0,1.6,91,0.04,,,0.11,meteobridge,2013-08-17 21:57:00,
2013-08-17 18:02:00,64.9,62.2,30.08,North,0,0.7,0.7,91,0.04,,,0.11,meteobridge,2013-08-17 22:02:00,
2013-08-17 18:07:00,64.9,62.2,30.08,North,0,0.7,0.7,91,0.04,,,0.11,meteobridge,2013-08-17 22:07:00,
2013-08-17 18:12:00,64.9,62.6,30.08,East,90,3.8,3.8,92,0.05,,,0.12,meteobridge,2013-08-17 22:12:00,
2013-08-17 18:18:00,64.9,62.2,30.07,North,0,1.6,5.4,91,0.05,,,0.12,meteobridge,2013-08-17 22:18:00,
2013-08-17 18:23:00,65.1,62.8,30.07,South,180,0.0,3.1,92,0.05,,,0.12,meteobridge,2013-08-17 22:23:00,
2013-08-17 18:28:00,65.3,63.0,30.07,North,0,1.6,1.6,92,0.02,,,0.12,meteobridge,2013-08-17 22:28:00,
2013-08-17 18:33:00,65.3,63.0,30.07,West,270,0.0,3.1,92,0.04,,,0.13,meteobridge,2013-08-17 22:33:00,
2013-08-17 18:38:00,64.9,62.6,30.08,West,270,0.7,1.6,92,0.04,,,0.13,meteobridge,2013-08-17 22:38:00,
2013-08-17 18:43:00,64.8,62.4,30.08,North,0,0.0,0.0,92,0.04,,,0.13,meteobridge,2013-08-17 22:43:00,
2013-08-17 18:48:00,64.8,62.4,30.08,North,0,0.0,0.0,92,0.02,,,0.13,meteobridge,2013-08-17 22:48:00,
2013-08-17 18:54:00,64.8,62.4,30.08,North,0,0.7,0.7,92,0.02,,,0.13,meteobridge,2013-08-17 22:54:00,
2013-08-17 18:59:00,64.6,62.2,30.08,North,0,1.6,1.6,92,0.02,,,0.13,meteobridge,2013-08-17 22:59:00,
2013-08-17 19:04:00,64.9,62.6,30.08,North,0,0.0,0.0,92,0.02,,,0.13,meteobridge,2013-08-17 23:04:00,
2013-08-17 19:10:00,64.9,62.8,30.08,North,0,1.6,1.6,93,0.04,,,0.14,meteobridge,2013-08-17 23:10:00,
2013-08-17 19:15:00,64.8,62.6,30.09,SW,225,2.2,2.2,93,0.02,,,0.14,meteobridge,2013-08-17 23:15:00,
2013-08-17 19:20:00,64.8,62.6,30.09,South,180,1.6,1.6,93,0.02,,,0.14,meteobridge,2013-08-17 23:20:00,
2013-08-17 19:25:00,64.8,62.6,30.08,East,90,2.2,2.2,93,0.04,,,0.15,meteobridge,2013-08-17 23:25:00,
2013-08-17 19:30:00,64.8,62.6,30.07,South,180,0.7,2.2,93,0.04,,,0.15,meteobridge,2013-08-17 23:30:00,
2013-08-17 19:38:00,64.8,62.6,30.08,North,0,3.8,4.5,93,0.02,,,0.15,meteobridge,2013-08-17 23:38:00,
2013-08-17 19:43:00,64.8,62.6,30.08,West,270,1.6,3.8,93,0.02,,,0.15,meteobridge,2013-08-17 23:43:00,
2013-08-17 19:49:00,64.8,62.6,30.10,West,270,0.0,0.7,93,0.02,,,0.15,meteobridge,2013-08-17 23:49:00,
2013-08-17 19:55:00,64.8,62.6,30.09,West,270,0.0,0.0,93,0.02,,,0.15,meteobridge,2013-08-17 23:55:00,
2013-08-17 20:00:00,64.6,62.4,30.09,North,0,1.6,1.6,93,0.02,,,0.00,meteobridge,2013-08-18 00:00:00,
2013-08-17 20:05:00,64.6,62.4,30.09,North,0,1.6,1.6,93,0.02,,,0.00,meteobridge,2013-08-18 00:05:00,
2013-08-17 20:11:00,64.8,62.6,30.09,North,0,0.7,3.1,93,0.01,,,0.00,meteobridge,2013-08-18 00:11:00,
2013-08-17 20:16:00,64.8,62.6,30.10,North,0,0.0,0.0,93,0.01,,,0.00,meteobridge,2013-08-18 00:16:00,
2013-08-17 20:21:00,64.8,62.6,30.10,West,270,0.0,0.0,93,0.01,,,0.00,meteobridge,2013-08-18 00:21:00,
2013-08-17 20:27:00,64.8,62.6,30.09,East,90,0.0,0.0,93,0.00,,,0.00,meteobridge,2013-08-18 00:27:00,
2013-08-17 20:34:00,64.8,62.6,30.09,South,180,0.0,0.0,93,0.00,,,0.00,meteobridge,2013-08-18 00:34:00,
2013-08-17 20:41:00,64.8,63.0,30.09,North,0,1.6,1.6,94,0.00,,,0.00,meteobridge,2013-08-18 00:41:00,
2013-08-17 20:46:00,64.8,63.0,30.09,East,90,0.0,1.6,94,0.00,,,0.00,meteobridge,2013-08-18 00:46:00,
2013-08-17 20:51:00,64.8,63.0,30.10,North,0,0.0,0.0,94,0.00,,,0.00,meteobridge,2013-08-18 00:51:00,
2013-08-17 20:56:00,64.6,62.8,30.10,South,180,1.6,1.6,94,0.00,,,0.00,meteobridge,2013-08-18 00:56:00,
2013-08-17 21:03:00,64.8,63.0,30.09,North,0,1.6,1.6,94,0.00,,,0.00,meteobridge,2013-08-18 01:03:00,
2013-08-17 21:09:00,64.8,63.0,30.09,South,180,0.0,1.6,94,0.00,,,0.00,meteobridge,2013-08-18 01:09:00,
2013-08-17 21:14:00,64.8,63.0,30.09,North,0,0.0,1.6,94,0.00,,,0.00,meteobridge,2013-08-18 01:14:00,
2013-08-17 21:19:00,64.8,63.0,30.09,South,180,0.0,0.0,94,0.00,,,0.00,meteobridge,2013-08-18 01:19:00,
2013-08-17 21:24:00,64.8,63.0,30.09,South,180,0.0,0.0,94,0.00,,,0.00,meteobridge,2013-08-18 01:24:00,
2013-08-17 21:29:00,64.8,63.0,30.09,South,180,0.0,0.0,94,0.00,,,0.00,meteobridge,2013-08-18 01:29:00,
2013-08-17 21:34:00,64.6,62.8,30.10,North,0,1.6,1.6,94,0.00,,,0.00,meteobridge,2013-08-18 01:34:00,
2013-08-17 21:40:00,64.8,63.0,30.10,North,0,0.0,0.0,94,0.00,,,0.00,meteobridge,2013-08-18 01:40:00,
2013-08-17 21:45:00,64.8,63.0,30.10,East,90,0.7,0.7,94,0.00,,,0.00,meteobridge,2013-08-18 01:45:00,
2013-08-17 21:50:00,64.8,63.0,30.10,North,0,0.0,0.0,94,0.00,,,0.00,meteobridge,2013-08-18 01:50:00,
2013-08-17 21:55:00,64.8,63.0,30.11,North,0,0.0,0.0,94,0.00,,,0.00,meteobridge,2013-08-18 01:55:00,
2013-08-17 22:00:00,64.9,63.5,30.11,North,0,0.0,0.0,95,0.00,,,0.00,meteobridge,2013-08-18 02:00:00,
2013-08-17 22:06:00,64.9,63.5,30.11,North,0,0.0,0.0,95,0.00,,,0.00,meteobridge,2013-08-18 02:06:00,
2013-08-17 22:11:00,64.9,63.5,30.12,North,0,0.0,0.0,95,0.00,,,0.00,meteobridge,2013-08-18 02:11:00,
2013-08-17 22:16:00,64.9,63.5,30.11,North,0,0.0,0.0,95,0.00,,,0.00,meteobridge,2013-08-18 02:16:00,
2013-08-17 22:21:00,64.9,63.5,30.11,East,90,0.0,0.7,95,0.00,,,0.00,meteobridge,2013-08-18 02:21:00,
2013-08-17 22:26:00,64.9,63.5,30.11,North,0,0.0,0.0,95,0.00,,,0.00,meteobridge,2013-08-18 02:26:00,
2013-08-17 22:31:00,64.9,63.5,30.12,North,0,0.0,0.0,95,0.00,,,0.00,meteobridge,2013-08-18 02:31:00,
2013-08-17 22:36:00,64.9,63.5,30.11,North,0,0.0,0.7,95,0.00,,,0.00,meteobridge,2013-08-18 02:36:00,
2013-08-17 22:42:00,64.9,63.1,30.12,North,0,0.0,2.2,94,0.00,,,0.00,meteobridge,2013-08-18 02:42:00,
2013-08-17 22:47:00,64.9,63.1,30.11,North,0,0.0,0.0,94,0.00,,,0.00,meteobridge,2013-08-18 02:47:00,
2013-08-17 22:52:00,64.9,63.1,30.11,North,0,0.0,0.7,94,0.00,,,0.00,meteobridge,2013-08-18 02:52:00,
2013-08-17 22:57:00,64.9,63.1,30.11,East,90,0.0,0.7,94,0.00,,,0.00,meteobridge,2013-08-18 02:57:00,
2013-08-17 23:02:00,64.9,63.1,30.11,NE,45,0.0,0.0,94,0.00,,,0.00,meteobridge,2013-08-18 03:02:00,
2013-08-17 23:07:00,64.9,63.1,30.11,NE,45,0.0,0.0,94,0.00,,,0.00,meteobridge,2013-08-18 03:07:00,
2013-08-17 23:13:00,64.9,63.1,30.11,North,0,0.0,0.0,94,0.00,,,0.00,meteobridge,2013-08-18 03:13:00,
2013-08-17 23:18:00,64.9,63.1,30.11,East,90,0.0,0.0,94,0.00,,,0.00,meteobridge,2013-08-18 03:18:00,
2013-08-17 23:23:00,64.9,63.1,30.12,South,180,0.0,0.0,94,0.00,,,0.00,meteobridge,2013-08-18 03:23:00,
2013-08-17 23:28:00,64.9,63.1,30.12,South,180,0.0,0.0,94,0.00,,,0.00,meteobridge,2013-08-18 03:28:00,
2013-08-17 23:33:00,64.9,63.5,30.12,North,0,0.0,0.0,95,0.00,,,0.00,meteobridge,2013-08-18 03:33:00,
2013-08-17 23:38:00,65.1,63.7,30.12,North,0,0.0,0.0,95,0.00,,,0.00,meteobridge,2013-08-18 03:38:00,
2013-08-17 23:44:00,65.1,63.7,30.12,North,0,0.0,0.0,95,25.70,,,0.00,meteobridge,2013-08-18 03:44:00,
2013-08-17 23:49:00,64.9,63.5,30.12,North,0,1.6,1.6,95,25.70,,,0.00,meteobridge,2013-08-18 03:49:00,
2013-08-17 23:54:00,64.9,63.5,30.12,North,0,0.0,0.0,95,25.70,,,0.00,meteobridge,2013-08-18 03:54:00,
2013-08-17 23:59:00,64.9,63.5,30.12,North,0,0.0,0.0,95,25.70,,,0.00,meteobridge,2013-08-18 03:59:00,